User: anonymous   Login
Location: Unspecified
(0.0000°N, 0.0000°E)
Time: 21:56:54
(UTC+00:00)
Language:

SES 6 - Orbit

View from above orbital plane
View from above orbital plane
View from above satellite
View from above satellite

Ground track
Ground track

The orbit data is extracted from the following two-line orbital elements,

1 39172U 13026A   15147.38557670 -.00000265  00000-0  00000+0 0  9996
2 39172 000.0174 331.5667 0002068 082.5802 288.7703 01.00270352  7235
Epoch (UTC): 27 May 2015 09:15:13
Eccentricity: 0.0002068
inclination: 0.0174°
perigee height: 35778 km
apogee height: 35795 km
right ascension of ascending node: 331.5667°
argument of perigee: 82.5802°
revolutions per day: 1.00270352
mean anomaly at epoch: 288.7703°
orbit number at epoch: 723

The dashed part of the orbit path shows where the satellite is in the earth's shadow,  

DLR